Terminal Aerodrome Forecast
Issued by NWS

Home | Current Version | Previous Version | Text Only | Print | Product List | Glossary On
Versions: 1 2 3 4 5 6 7 8 9 10 11 12 13 14 15 16 17 18 19 20 21
000
FTUS42 KTBW 010901 AAB
TAFRSW
TAF AMD
KRSW 010901Z 0109/0206 VRB03KT P6SM SCT250
      TEMPO 0109/0110 3SM BR OVC002
     FM011600 22008KT P6SM VCTS SCT025CB BKN100 BKN250
     FM020200 VRB04KT P6SM SCT030 BKN200=

USA.gov is the U.S. government's official web portal to all federal, state and local government web resources and services.